Tracking 29777 objects as of 4-Oct-2024
HD Live streaming from Space Station
objects crossing your sky now

DELTA 1 DEB

Track DELTA 1 DEB now!
10-day predictions


NORAD ID: 10842
Int'l Code: 1976-077CN
Perigee: 1,208.9 km
Apogee: 1,660.7 km
Inclination: 102.1 °
Period: 114.4 minutes
Semi major axis: 7805 km
RCS: 0.1889 m2 (medium)
Launch date: July 29, 1976
Source: United States (US)
Launch site: AIR FORCE WESTERN TEST RANGE (AFWTR)

Note: This is SATELLITE DEBRIS
Your satellite tracking list
Your tracking list is empty




NASA's NSSDC Master Catalog

Two Line Element Set (TLE):
1 10842U 76077CN  24277.91684906  .00000236  00000-0  14103-2 0  9999
2 10842 102.1245  44.1189 0289413 159.1428 319.0190 12.58853512 76484
Source of the keplerian elements: AFSPC